This is the latest recevied weather packets stored in our database for station/object BARLOW-WX. If no packets are shown the sender has not sent any weather packets the latest 10 day(s).
| Time | Temp. | Humidity | Pressure | Rain* | Wind** | Luminosity | Snow |
|---|---|---|---|---|---|---|---|
| 1777584695 | 9.44° C | 47% | 988.9 hPa | 0 mm | - | - | - |
| 1777583780 | 8.89° C | 47% | 988.9 hPa | 0 mm | - | - | - |
| 1777581980 | 9.44° C | 46% | 988.6 hPa | 0 mm | - | - | - |
| 1777580181 | 9.44° C | 46% | 988.2 hPa | 0 mm | - | - | - |
| 1777577493 | 9.44° C | 46% | 988.3 hPa | 0 mm | - | - | - |
| 1777573891 | 9.44° C | 48% | 988 hPa | 0 mm | - | - | - |
| 1777572978 | 9.44° C | 48% | 988 hPa | 0 mm | - | - | - |
| 1777572109 | 9.44° C | 48% | 988 hPa | 0 mm | - | - | - |
| 1777570295 | 8.89° C | 49% | 988.8 hPa | 0 mm | - | - | - |
| 1777569378 | 8.89° C | 49% | 988.8 hPa | 0 mm | - | - | - |
| 1777563977 | 8.33° C | 70% | 987.8 hPa | 0 mm | - | - | - |
| 1777558577 | 6.67° C | 78% | 988.9 hPa | 0 mm | - | - | - |
| 1777556778 | 6.11° C | 84% | 988.3 hPa | 0 mm | - | - | - |
| 1777554978 | 5.56° C | 84% | 988.4 hPa | 0 mm | - | - | - |
| 1777554111 | 5.56° C | 84% | 988.4 hPa | 0 mm | - | - | - |
| 1777552291 | 4.44° C | 88% | 988 hPa | 0 mm | - | - | - |
| 1777545095 | 2.22° C | 93% | 988.1 hPa | 0 mm | - | - | - |
| 1777544177 | 2.78° C | 93% | 988.1 hPa | 0 mm | - | - | - |
| 1777543303 | 2.78° C | 92% | 988.3 hPa | 0 mm | - | - | - |
| 1777542375 | 2.78° C | 89% | 988 hPa | 0 mm | - | - | - |
| 1777541494 | 2.78° C | 89% | 988 hPa | 0 mm | - | - | - |
| 1777540576 | 2.78° C | 89% | 988 hPa | 0 mm | - | - | - |
| 1777539703 | 3.33° C | 89% | 988 hPa | 0 mm | - | - | - |
| 1777536977 | 3.89° C | 88% | 987.4 hPa | 0 mm | - | - | - |
| 1777536108 | 3.89° C | 88% | 987.4 hPa | 0 mm | - | - | - |
* Rain latest hour (hover to see other rain measurements)
** Current wind speed in m/s (hover to see current wind gust speed)